星链-4731 (STARLINK-4731 )

导读 | 豆包AI

STARLINK-4731是美国太空探索技术公司(SpaceX)星链星座的成员,由美国于2022年9月5日发射升空。星链项目旨在构建全球卫星互联网,该卫星承担着为地面偏远地区、移动载体提供低延迟宽带接入的任务,依靠批量部署的低轨卫星网络,助力实现全球无缝网络覆盖,推动卫星互联网商业化落地。

基本信息
目录编号:
53703
目录名称:
STARLINK-4731
国际标识:
2022-107D
轨道中心:
EARTH
卫星名称:
星链-4731
卫星全名:
星链-4731 (STARLINK-4731 )
卫星状态:
在轨 (已飞行1333 天)
发射日期:
2022-09-05 UTC
国别 :
美国 (US)
星等 :
--
轨道信息
数据来源 国际轨道数据
星历时间: 2026-04-30T08:00:50+0800
16小时前
查看轨道信息
半长轴: 6917.9km
偏心率: 0.0001559
轨道倾角: 53.220°
近地点辐角 92.203°
升交点赤经 13.521°
平近点角 267.914°
近地点: 538.684km
远地点: 540.842km
周期: 95.438分钟
每日圈数: 15.088336
详细信息
固有亮度:
5
最大亮度:
2.5
卫星平台:
Starlink v1.5
覆盖范围:
全球
运营商:
太空探索技术公司
运营商所在国:
美国
制造商(研发单位):
太空探索技术公司
制造商所在国:
美国
使用方式:
暂无
卫星简介
星链(Starlink)计划是由太空探索技术公司(SpaceX)提出的一个巨型低轨卫星互联网星座项目,计划在2019年至2024年间在太空搭建由约1.2万颗卫星组成的“星链”网络,其中1584颗将部署在地球上空550千米处的近地轨道,并从2020年开始工作。该卫星仍在工作。
2D轨道图
3D轨道图
轨道高度分析图
轨道倾角分析图
轨道综合分析图
查看轨道综合分析图